Location: Chuathbaluk
(61.5726°N, 159.2454°W)
Time: 14:23:06
(UTC+00:00)

NOAA 15 - Pass Details

Date: 17 January 2021
Orbit: 798 x 812 km, 98.7° (Epoch: 01 March)

Event Time Altitude Azimuth Distance (km) Brightness Sun altitude
Rises 04:02:29 0° 140° (SE) 3,305 7.6 -13.0°
Reaches altitude 10° 04:04:51 10° 136° (SE) 2,379 6.8 -13.3°
Maximum altitude 04:09:57 54° 60° (ENE) 981 4.7 -13.8°
Drops below altitude 10° 04:15:06 10° 345° (NNW) 2,401 7.0 -14.4°
Sets 04:17:29 0° 341° (NNW) 3,338 7.8 -14.7°
